| time (UTC) | temp F | wind direction | speed knots | gust knots | rain 1hr in | rain 24hr in | rain mn in | humidity % | barometer mb |
| 20260506025449 | 49 | 72 | 2.6 | 4.3 | 0.00 | 0.00 | 0.00 | 73 | 1012.7 |
| 20260506024945 | 49 | 28 | 3.5 | 6.1 | 0.00 | 0.00 | 0.00 | 74 | 1012.7 |
| 20260506024442 | 49 | 34 | 4.3 | 7.0 | 0.00 | 0.00 | 0.00 | 74 | 1012.9 |
| 20260506023938 | 49 | 57 | 2.6 | 2.6 | 0.00 | 0.00 | 0.00 | 75 | 1012.8 |
| 20260506023435 | 49 | 343 | 4.3 | 6.1 | 0.00 | 0.00 | 0.00 | 75 | 1012.7 |
| 20260506022932 | 49 | 95 | 4.3 | 6.1 | 0.00 | 0.00 | 0.00 | 75 | 1012.8 |
| 20260506022430 | 49 | 21 | 7.8 | 8.7 | 0.00 | 0.00 | 0.00 | 75 | 1013.0 |
| 20260506021927 | 49 | 35 | 4.3 | 6.1 | 0.00 | 0.00 | 0.00 | 75 | 1012.8 |
| 20260506021424 | 49 | 25 | 4.3 | 6.1 | 0.00 | 0.00 | 0.00 | 74 | 1012.9 |
| 20260506020921 | 49 | 72 | 0.9 | 0.9 | 0.00 | 0.00 | 0.00 | 74 | 1012.9 |
| 20260506020419 | 49 | 12 | 5.2 | 6.1 | 0.00 | 0.00 | 0.00 | 74 | 1012.7 |
| 20260506015916 | 49 | 55 | 4.3 | 5.2 | 0.00 | 0.00 | 0.00 | 74 | 1012.7 |
| 20260506015414 | 49 | 73 | 4.3 | 6.1 | 0.00 | 0.00 | 0.00 | 74 | 1012.5 |
| 20260506014910 | 49 | 31 | 4.3 | 6.1 | 0.00 | 0.00 | 0.00 | 74 | 1012.4 |
| 20260506014407 | 49 | 336 | 2.6 | 2.6 | 0.00 | 0.00 | 0.00 | 74 | 1012.6 |
| 20260506013904 | 49 | 119 | 0.9 | 1.7 | 0.00 | 0.00 | 0.00 | 74 | 1012.2 |
| 20260506013402 | 49 | 180 | 7.8 | 11.3 | 0.00 | 0.00 | 0.00 | 74 | 1012.4 |
| 20260506012857 | 50 | 105 | 3.5 | 5.2 | 0.00 | 0.00 | 0.00 | 73 | 1012.2 |
| 20260506012354 | 50 | 73 | 3.5 | 5.2 | 0.00 | 0.00 | 0.00 | 73 | 1012.5 |
| 20260506011852 | 50 | 58 | 4.3 | 6.1 | 0.00 | 0.00 | 0.00 | 73 | 1012.2 |
| 20260506011349 | 50 | 45 | 2.6 | 4.3 | 0.00 | 0.00 | 0.00 | 73 | 1012.5 |
| 20260506010846 | 50 | 13 | 4.3 | 7.0 | 0.00 | 0.00 | 0.00 | 73 | 1012.1 |
| 20260506010344 | 50 | 109 | 3.5 | 5.2 | 0.00 | 0.00 | 0.00 | 73 | 1012.1 |
| 20260506005841 | 50 | 48 | 3.5 | 4.3 | 0.00 | 0.00 | 0.00 | 72 | 1011.8 |
| 20260506005337 | 50 | 73 | 1.7 | 2.6 | 0.00 | 0.00 | 0.00 | 72 | 1011.9 |
| 20260506004833 | 50 | 35 | 3.5 | 5.2 | 0.00 | 0.00 | 0.00 | 72 | 1011.6 |
| 20260506004331 | 50 | 27 | 4.3 | 5.2 | 0.00 | 0.00 | 0.00 | 72 | 1011.4 |
| 20260506003827 | 50 | 95 | 3.5 | 6.1 | 0.00 | 0.00 | 0.00 | 72 | 1011.1 |
| 20260506003323 | 50 | 41 | 1.7 | 2.6 | 0.00 | 0.00 | 0.00 | 72 | 1011.1 |
| 20260506002820 | 50 | 94 | 3.5 | 4.3 | 0.00 | 0.00 | 0.00 | 72 | 1011.1 |
| 20260506002316 | 50 | 38 | 2.6 | 4.3 | 0.00 | 0.00 | 0.00 | 72 | 1011.1 |
| 20260506001812 | 51 | 18 | 6.1 | 8.7 | 0.00 | 0.00 | 0.00 | 71 | 1010.9 |
| 20260506001309 | 51 | 49 | 2.6 | 2.6 | 0.00 | 0.00 | 0.00 | 71 | 1010.8 |
| 20260506000806 | 51 | 344 | 3.5 | 6.1 | 0.00 | 0.00 | 0.00 | 71 | 1010.8 |
| 20260506000304 | 51 | 348 | 4.3 | 5.2 | 0.00 | 0.00 | 0.00 | 70 | 1011.0 |
| 20260505235800 | 51 | 33 | 3.5 | 5.2 | 0.00 | 0.00 | 0.00 | 70 | 1011.0 |
| 20260505235258 | 51 | 66 | 2.6 | 2.6 | 0.00 | 0.00 | 0.00 | 70 | 1011.0 |
| 20260505234755 | 51 | 20 | 5.2 | 7.0 | 0.00 | 0.00 | 0.00 | 69 | 1010.8 |
| 20260505234253 | 51 | 81 | 2.6 | 4.3 | 0.00 | 0.00 | 0.00 | 69 | 1010.8 |
| 20260505233749 | 51 | 45 | 6.1 | 8.7 | 0.00 | 0.00 | 0.00 | 69 | 1010.8 |
| 20260505233247 | 51 | 142 | 0.9 | 1.7 | 0.00 | 0.00 | 0.00 | 69 | 1010.9 |
| 20260505232744 | 51 | 36 | 5.2 | 6.1 | 0.00 | 0.00 | 0.00 | 68 | 1011.1 |
| 20260505232241 | 52 | 357 | 4.3 | 5.2 | 0.00 | 0.00 | 0.00 | 68 | 1011.4 |
| 20260505231738 | 52 | 70 | 2.6 | 2.6 | 0.00 | 0.00 | 0.00 | 68 | 1011.4 |
| 20260505231237 | 52 | 56 | 1.7 | 2.6 | 0.00 | 0.00 | 0.00 | 69 | 1011.0 |
| 20260505230735 | 52 | 59 | 3.5 | 4.3 | 0.00 | 0.00 | 0.00 | 68 | 1011.1 |
| 20260505230231 | 52 | 72 | 1.7 | 1.7 | 0.00 | 0.00 | 0.00 | 69 | 1010.8 |
| 20260505225728 | 52 | 271 | 4.3 | 8.7 | 0.00 | 0.00 | 0.00 | 68 | 1010.4 |
| 20260505225225 | 52 | 39 | 2.6 | 4.3 | 0.00 | 0.00 | 0.00 | 67 | 1010.4 |
| 20260505224720 | 53 | 64 | 1.7 | 2.6 | 0.00 | 0.00 | 0.00 | 67 | 1010.6 |
| 20260505224218 | 53 | 43 | 4.3 | 6.1 | 0.00 | 0.00 | 0.00 | 67 | 1010.5 |
| 20260505223715 | 53 | 30 | 5.2 | 7.0 | 0.00 | 0.00 | 0.00 | 67 | 1010.4 |
| 20260505223211 | 53 | 36 | 3.5 | 5.2 | 0.00 | 0.00 | 0.00 | 66 | 1010.6 |
| 20260505222707 | 53 | 39 | 5.2 | 7.8 | 0.00 | 0.00 | 0.00 | 66 | 1010.6 |
| 20260505222203 | 53 | 49 | 5.2 | 8.7 | 0.00 | 0.00 | 0.00 | 66 | 1010.6 |
| 20260505221701 | 53 | 338 | 5.2 | 6.1 | 0.00 | 0.00 | 0.00 | 66 | 1010.4 |
| 20260505221157 | 53 | 30 | 5.2 | 9.6 | 0.00 | 0.00 | 0.00 | 66 | 1010.0 |
| 20260505220654 | 53 | 299 | 7.0 | 7.8 | 0.00 | 0.00 | 0.00 | 66 | 1010.2 |
| 20260505220152 | 54 | 72 | 7.0 | 9.6 | 0.00 | 0.00 | 0.00 | 66 | 1010.1 |
| 20260505215650 | 54 | 60 | 2.6 | 5.2 | 0.00 | 0.00 | 0.00 | 65 | 1010.1 |
| 20260505215148 | 54 | 17 | 2.6 | 4.3 | 0.00 | 0.00 | 0.00 | 65 | 1010.3 |
| 20260505214645 | 54 | 123 | 2.6 | 4.3 | 0.00 | 0.00 | 0.00 | 65 | 1009.9 |
| 20260505214142 | 54 | 70 | 7.8 | 9.6 | 0.00 | 0.00 | 0.00 | 65 | 1010.0 |
| 20260505213640 | 54 | 16 | 6.1 | 7.8 | 0.00 | 0.00 | 0.00 | 65 | 1009.4 |
| 20260505213136 | 55 | 40 | 7.8 | 12.2 | 0.00 | 0.00 | 0.00 | 65 | 1009.3 |
| 20260505212632 | 55 | 50 | 4.3 | 7.0 | 0.00 | 0.00 | 0.00 | 64 | 1009.5 |
| 20260505212130 | 54 | 350 | 6.1 | 7.8 | 0.00 | 0.00 | 0.00 | 65 | 1009.5 |
| 20260505211627 | 54 | 336 | 6.1 | 7.8 | 0.00 | 0.00 | 0.00 | 65 | 1009.6 |
| 20260505211124 | 54 | 331 | 7.0 | 8.7 | 0.00 | 0.00 | 0.00 | 65 | 1009.8 |
| 20260505210621 | 54 | 14 | 7.8 | 13.0 | 0.00 | 0.00 | 0.00 | 66 | 1009.5 |
| 20260505210117 | 54 | 36 | 5.2 | 8.7 | 0.00 | 0.00 | 0.00 | 65 | 1009.2 |
| 20260505205615 | 54 | 79 | 5.2 | 7.0 | 0.00 | 0.00 | 0.00 | 65 | 1009.1 |
| 20260505205113 | 54 | 8 | 4.3 | 6.1 | 0.00 | 0.00 | 0.00 | 66 | 1009.0 |
| 20260505204610 | 54 | 1 | 4.3 | 6.1 | 0.00 | 0.00 | 0.00 | 67 | 1009.4 |
| 20260505204107 | 54 | 36 | 4.3 | 6.1 | 0.00 | 0.00 | 0.00 | 66 | 1010.0 |
| 20260505203604 | 54 | 36 | 3.5 | 6.1 | 0.00 | 0.00 | 0.00 | 67 | 1010.5 |
| 20260505203101 | 55 | 74 | 7.8 | 12.2 | 0.00 | 0.00 | 0.00 | 67 | 1010.1 |
| 20260505202556 | 54 | 60 | 7.8 | 9.6 | 0.00 | 0.00 | 0.00 | 66 | 1009.5 |
| 20260505202053 | 54 | 45 | 5.2 | 8.7 | 0.00 | 0.00 | 0.00 | 66 | 1009.2 |
| 20260505201550 | 55 | 359 | 7.8 | 9.6 | 0.00 | 0.00 | 0.00 | 67 | 1009.3 |
| 20260505201048 | 54 | 64 | 4.3 | 9.6 | 0.00 | 0.00 | 0.00 | 67 | 1009.1 |
| 20260505200545 | 54 | 43 | 4.3 | 6.1 | 0.00 | 0.00 | 0.00 | 67 | 1009.3 |
| 20260505200041 | 55 | 61 | 6.1 | 7.8 | 0.00 | 0.00 | 0.00 | 67 | 1009.1 |
| 20260505195532 | 55 | 9 | 5.2 | 6.1 | 0.00 | 0.00 | 0.00 | 68 | 1009.4 |
| 20260505195030 | 55 | 101 | 3.5 | 6.1 | 0.00 | 0.00 | 0.00 | 68 | 1009.1 |
| 20260505194527 | 55 | 347 | 5.2 | 7.0 | 0.00 | 0.00 | 0.00 | 68 | 1009.0 |
| 20260505194022 | 55 | 34 | 4.3 | 7.0 | 0.00 | 0.00 | 0.00 | 68 | 1009.2 |
| 20260505193519 | 55 | 17 | 4.3 | 7.0 | 0.00 | 0.00 | 0.00 | 69 | 1009.1 |
| 20260505193016 | 54 | 66 | 2.6 | 6.1 | 0.00 | 0.00 | 0.00 | 69 | 1009.2 |
| 20260505192516 | 54 | 69 | 7.0 | 7.8 | 0.00 | 0.00 | 0.00 | 71 | 1009.1 |
| 20260505192013 | 54 | 35 | 5.2 | 7.8 | 0.00 | 0.00 | 0.00 | 71 | 1009.3 |
| 20260505191511 | 54 | 326 | 4.3 | 6.1 | 0.00 | 0.00 | 0.00 | 72 | 1009.0 |
| 20260505191008 | 54 | 35 | 4.3 | 6.1 | 0.00 | 0.00 | 0.00 | 71 | 1009.0 |
| 20260505190502 | 55 | 39 | 4.3 | 6.1 | 0.00 | 0.00 | 0.00 | 72 | 1008.8 |
| 20260505185958 | 54 | 23 | 4.3 | 5.2 | 0.00 | 0.00 | 0.00 | 73 | 1009.1 |
| 20260505185456 | 54 | 53 | 2.6 | 4.3 | 0.00 | 0.00 | 0.00 | 73 | 1009.0 |
| 20260505184952 | 55 | 310 | 6.1 | 8.7 | 0.00 | 0.00 | 0.00 | 73 | 1009.1 |
| 20260505184449 | 55 | 35 | 11.3 | 15.6 | 0.00 | 0.00 | 0.00 | 72 | 1009.0 |
| 20260505183945 | 55 | 48 | 6.1 | 7.8 | 0.00 | 0.00 | 0.00 | 72 | 1008.9 |
| 20260505183443 | 55 | 73 | 2.6 | 4.3 | 0.00 | 0.00 | 0.00 | 72 | 1008.9 |
| 20260505182939 | 56 | 345 | 6.1 | 8.7 | 0.00 | 0.00 | 0.00 | 71 | 1008.7 |
| 20260505182436 | 56 | 58 | 6.1 | 7.0 | 0.00 | 0.00 | 0.00 | 71 | 1008.8 |
| 20260505181932 | 56 | 67 | 0.9 | 1.7 | 0.00 | 0.00 | 0.00 | 71 | 1008.9 |
| 20260505181430 | 57 | 77 | 5.2 | 7.0 | 0.00 | 0.00 | 0.00 | 70 | 1008.9 |
| 20260505180926 | 57 | 19 | 7.8 | 9.6 | 0.00 | 0.00 | 0.00 | 70 | 1008.4 |
| 20260505180423 | 57 | 25 | 4.3 | 6.1 | 0.00 | 0.00 | 0.00 | 71 | 1008.6 |
| 20260505175919 | 57 | 0 | 9.6 | 13.0 | 0.00 | 0.00 | 0.00 | 70 | 1008.2 |
| 20260505175416 | 57 | 357 | 7.0 | 9.6 | 0.00 | 0.00 | 0.00 | 70 | 1008.4 |
| 20260505174912 | 57 | 7 | 4.3 | 6.1 | 0.00 | 0.00 | 0.00 | 70 | 1008.1 |
| 20260505174410 | 57 | 82 | 4.3 | 5.2 | 0.00 | 0.00 | 0.00 | 70 | 1007.9 |
| 20260505173906 | 57 | 31 | 2.6 | 2.6 | 0.00 | 0.00 | 0.00 | 70 | 1007.9 |
| 20260505173402 | 57 | 6 | 4.3 | 6.1 | 0.00 | 0.00 | 0.00 | 71 | 1008.0 |
| 20260505172859 | 57 | 95 | 1.7 | 2.6 | 0.00 | 0.00 | 0.00 | 71 | 1007.9 |
| 20260505172357 | 57 | 32 | 4.3 | 5.2 | 0.00 | 0.00 | 0.00 | 71 | 1007.7 |
| 20260505171857 | 56 | 50 | 2.6 | 5.2 | 0.00 | 0.00 | 0.00 | 72 | 1007.8 |
| 20260505171354 | 57 | 34 | 4.3 | 6.1 | 0.00 | 0.00 | 0.00 | 72 | 1007.9 |
| 20260505170850 | 57 | 21 | 5.2 | 9.6 | 0.00 | 0.00 | 0.00 | 72 | 1007.8 |
| 20260505170347 | 56 | 39 | 5.2 | 7.0 | 0.00 | 0.00 | 0.00 | 72 | 1007.5 |
| 20260505165842 | 56 | 6 | 4.3 | 6.1 | 0.00 | 0.00 | 0.00 | 73 | 1007.5 |
| 20260505165338 | 56 | 57 | 4.3 | 5.2 | 0.00 | 0.00 | 0.00 | 73 | 1007.3 |
| 20260505164834 | 56 | 27 | 2.6 | 4.3 | 0.00 | 0.00 | 0.00 | 73 | 1007.2 |
| 20260505164331 | 57 | 22 | 7.0 | 7.8 | 0.00 | 0.00 | 0.00 | 74 | 1007.5 |
| 20260505163829 | 57 | 48 | 2.6 | 5.2 | 0.00 | 0.00 | 0.00 | 74 | 1007.1 |
| 20260505163328 | 57 | 22 | 4.3 | 6.1 | 0.00 | 0.00 | 0.00 | 74 | 1007.0 |
| 20260505162826 | 57 | 66 | 8.7 | 13.0 | 0.00 | 0.00 | 0.00 | 74 | 1006.6 |
| 20260505162322 | 57 | 75 | 4.3 | 7.8 | 0.00 | 0.00 | 0.00 | 74 | 1006.7 |
| 20260505161819 | 57 | 55 | 4.3 | 7.0 | 0.00 | 0.00 | 0.00 | 75 | 1006.4 |
| 20260505161316 | 57 | 70 | 7.8 | 9.6 | 0.00 | 0.00 | 0.00 | 75 | 1006.3 |
| 20260505160813 | 57 | 24 | 6.1 | 8.7 | 0.00 | 0.00 | 0.00 | 74 | 1006.1 |
| 20260505160311 | 57 | 19 | 5.2 | 7.0 | 0.00 | 0.00 | 0.00 | 75 | 1005.9 |
| 20260505153250 | 59 | 14 | 10.4 | 13.9 | 0.00 | 0.00 | 0.00 | 75 | 1004.9 |
| 20260505152747 | 60 | 59 | 7.0 | 9.6 | 0.00 | 0.00 | 0.00 | 75 | 1005.0 |
| 20260505152243 | 60 | 29 | 8.7 | 11.3 | 0.00 | 0.00 | 0.00 | 75 | 1004.8 |
| 20260505151737 | 60 | 357 | 8.7 | 9.6 | 0.00 | 0.00 | 0.00 | 75 | 1004.6 |
| 20260505151235 | 61 | 86 | 4.3 | 6.1 | 0.00 | 0.00 | 0.00 | 75 | 1004.5 |
| 20260505150731 | 61 | 89 | 6.1 | 7.8 | 0.00 | 0.00 | 0.00 | 75 | 1004.4 |
| 20260505150229 | 62 | 72 | 5.2 | 7.0 | 0.00 | 0.00 | 0.00 | 74 | 1003.9 |
| 20260505140154 | 72 | 98 | 0.0 | 0.0 | 0.00 | 0.00 | 0.00 | 70 | 1002.5 |
| 20260505130118 | 69 | 138 | 0.0 | 0.0 | 0.00 | 0.00 | 0.00 | 73 | 1001.8 |
| 20260505124607 | 68 | 137 | 0.0 | 0.0 | 0.00 | 0.00 | 0.00 | 75 | 1001.9 |
| 20260505124103 | 68 | 134 | 0.0 | 0.0 | 0.00 | 0.00 | 0.00 | 75 | 1001.9 |
| 20260505123600 | 68 | 134 | 0.0 | 0.0 | 0.00 | 0.00 | 0.00 | 74 | 1001.7 |
| 20260505123056 | 68 | 134 | 0.0 | 0.0 | 0.00 | 0.00 | 0.00 | 74 | 1001.7 |
| 20260505122553 | 68 | 134 | 0.0 | 0.0 | 0.00 | 0.00 | 0.00 | 74 | 1001.8 |
| 20260505122050 | 68 | 134 | 0.0 | 0.0 | 0.00 | 0.00 | 0.00 | 74 | 1001.5 |
| 20260505121547 | 68 | 133 | 0.0 | 0.0 | 0.00 | 0.00 | 0.00 | 74 | 1001.5 |
| 20260505121044 | 68 | 133 | 0.0 | 0.9 | 0.00 | 0.00 | 0.00 | 73 | 1001.4 |
| 20260505120540 | 68 | 109 | 0.0 | 0.0 | 0.00 | 0.00 | 0.00 | 73 | 1001.5 |
| 20260505120035 | 68 | 107 | 0.0 | 0.9 | 0.00 | 0.00 | 0.00 | 73 | 1001.4 |
| 20260505115530 | 69 | 150 | 0.9 | 1.7 | 0.00 | 0.00 | 0.00 | 73 | 1001.2 |
| 20260505115028 | 68 | 359 | 0.0 | 0.9 | 0.00 | 0.00 | 0.00 | 73 | 1001.0 |
| 20260505114525 | 68 | 100 | 0.9 | 1.7 | 0.00 | 0.00 | 0.00 | 73 | 1000.9 |
| 20260505114021 | 69 | 114 | 0.0 | 0.9 | 0.00 | 0.00 | 0.00 | 71 | 1001.0 |
| 20260505113518 | 70 | 92 | 2.6 | 2.6 | 0.00 | 0.00 | 0.00 | 70 | 1000.8 |
| 20260505113014 | 70 | 212 | 0.0 | 0.0 | 0.00 | 0.00 | 0.00 | 69 | 1000.1 |
| 20260505112511 | 70 | 159 | 0.0 | 0.0 | 0.00 | 0.00 | 0.00 | 69 | 999.8 |
| 20260505112009 | 70 | 174 | 0.0 | 1.7 | 0.00 | 0.00 | 0.00 | 69 | 999.9 |
| 20260505111502 | 71 | 217 | 1.7 | 1.7 | 0.00 | 0.00 | 0.00 | 68 | 999.6 |
| 20260505110958 | 71 | 170 | 1.7 | 2.6 | 0.00 | 0.00 | 0.00 | 68 | 999.7 |
| 20260505110455 | 71 | 152 | 0.0 | 0.9 | 0.00 | 0.00 | 0.00 | 68 | 999.8 |
| 20260505101927 | 72 | 288 | 7.0 | 8.7 | 0.00 | 0.00 | 0.00 | 67 | 999.1 |
| 20260505101421 | 72 | 159 | 2.6 | 4.3 | 0.00 | 0.00 | 0.00 | 67 | 999.0 |
| 20260505100917 | 72 | 216 | 1.7 | 5.2 | 0.00 | 0.00 | 0.00 | 67 | 999.2 |
| 20260505100414 | 72 | 179 | 3.5 | 6.1 | 0.00 | 0.00 | 0.00 | 67 | 999.0 |
| 20260505095909 | 72 | 212 | 7.0 | 11.3 | 0.00 | 0.00 | 0.00 | 67 | 999.1 |
| 20260505095407 | 72 | 146 | 5.2 | 7.8 | 0.00 | 0.00 | 0.00 | 67 | 999.0 |
| 20260505094903 | 72 | 140 | 0.9 | 2.6 | 0.00 | 0.00 | 0.00 | 67 | 999.1 |
| 20260505094400 | 72 | 154 | 3.5 | 7.0 | 0.00 | 0.00 | 0.00 | 67 | 999.1 |
| 20260505093855 | 72 | 209 | 4.3 | 6.1 | 0.00 | 0.00 | 0.00 | 67 | 999.2 |
| 20260505093353 | 72 | 152 | 2.6 | 4.3 | 0.00 | 0.00 | 0.00 | 67 | 999.2 |
| 20260505092850 | 72 | 155 | 3.5 | 7.8 | 0.00 | 0.00 | 0.00 | 67 | 998.8 |
| 20260505092348 | 72 | 236 | 6.1 | 8.7 | 0.00 | 0.00 | 0.00 | 67 | 999.0 |
| 20260505091845 | 72 | 146 | 1.7 | 4.3 | 0.00 | 0.00 | 0.00 | 67 | 998.7 |
| 20260505091343 | 72 | 197 | 5.2 | 7.8 | 0.00 | 0.00 | 0.00 | 67 | 998.9 |
| 20260505090841 | 72 | 214 | 5.2 | 8.7 | 0.00 | 0.00 | 0.00 | 67 | 999.1 |
| 20260505090339 | 72 | 175 | 2.6 | 4.3 | 0.00 | 0.00 | 0.00 | 67 | 999.0 |
| 20260505085836 | 72 | 155 | 2.6 | 4.3 | 0.00 | 0.00 | 0.00 | 67 | 999.1 |
| 20260505085334 | 72 | 189 | 5.2 | 6.1 | 0.00 | 0.00 | 0.00 | 67 | 999.0 |
| 20260505084831 | 72 | 190 | 4.3 | 5.2 | 0.00 | 0.00 | 0.00 | 67 | 999.2 |
| 20260505084329 | 72 | 223 | 6.1 | 9.6 | 0.00 | 0.00 | 0.00 | 67 | 999.5 |
| 20260505083826 | 72 | 214 | 8.7 | 11.3 | 0.00 | 0.00 | 0.00 | 67 | 999.5 |
| 20260505083324 | 72 | 223 | 6.1 | 9.6 | 0.00 | 0.00 | 0.00 | 67 | 999.5 |
| 20260505082820 | 72 | 193 | 3.5 | 4.3 | 0.00 | 0.00 | 0.00 | 67 | 999.3 |
| 20260505082317 | 72 | 143 | 1.7 | 4.3 | 0.00 | 0.00 | 0.00 | 67 | 999.5 |
| 20260505081813 | 72 | 194 | 4.3 | 7.0 | 0.00 | 0.00 | 0.00 | 67 | 999.5 |
| 20260505081310 | 73 | 160 | 4.3 | 8.7 | 0.00 | 0.00 | 0.00 | 67 | 999.9 |
| 20260505080806 | 72 | 160 | 3.5 | 5.2 | 0.00 | 0.00 | 0.00 | 67 | 999.8 |
| 20260505080303 | 72 | 171 | 2.6 | 4.3 | 0.00 | 0.00 | 0.00 | 67 | 999.8 |
| 20260505075758 | 72 | 117 | 8.7 | 15.6 | 0.00 | 0.00 | 0.00 | 67 | 999.8 |
| 20260505075255 | 72 | 122 | 2.6 | 5.2 | 0.00 | 0.00 | 0.00 | 67 | 999.9 |
| 20260505074753 | 72 | 201 | 5.2 | 7.8 | 0.00 | 0.00 | 0.00 | 67 | 999.7 |
| 20260505074250 | 72 | 217 | 6.1 | 7.0 | 0.00 | 0.00 | 0.00 | 67 | 999.8 |
| 20260505073747 | 72 | 185 | 4.3 | 7.8 | 0.00 | 0.00 | 0.00 | 67 | 999.9 |
| 20260505073245 | 72 | 171 | 3.5 | 5.2 | 0.00 | 0.00 | 0.00 | 68 | 999.9 |
| 20260505072741 | 72 | 202 | 6.1 | 7.0 | 0.00 | 0.00 | 0.00 | 67 | 1000.1 |
| 20260505072237 | 72 | 221 | 7.8 | 9.6 | 0.00 | 0.00 | 0.00 | 67 | 1000.1 |
| 20260505071733 | 72 | 141 | 2.6 | 6.1 | 0.00 | 0.00 | 0.00 | 67 | 1000.1 |
| 20260505071230 | 72 | 175 | 5.2 | 7.0 | 0.00 | 0.00 | 0.00 | 67 | 1000.3 |
| 20260505070728 | 72 | 142 | 2.6 | 6.1 | 0.00 | 0.00 | 0.00 | 67 | 1000.3 |
| 20260505070224 | 73 | 248 | 4.3 | 7.0 | 0.00 | 0.00 | 0.00 | 67 | 1000.4 |
| 20260505065720 | 73 | 130 | 5.2 | 7.0 | 0.00 | 0.00 | 0.00 | 67 | 1000.4 |
| 20260505065217 | 73 | 178 | 4.3 | 7.0 | 0.00 | 0.00 | 0.00 | 67 | 1000.4 |
| 20260505064714 | 73 | 179 | 2.6 | 6.1 | 0.00 | 0.00 | 0.00 | 66 | 1000.8 |
| 20260505064212 | 73 | 230 | 4.3 | 7.8 | 0.00 | 0.00 | 0.00 | 66 | 1000.8 |
| 20260505063709 | 73 | 122 | 1.7 | 5.2 | 0.00 | 0.00 | 0.00 | 66 | 1000.6 |
| 20260505063205 | 73 | 125 | 3.5 | 6.1 | 0.00 | 0.00 | 0.00 | 66 | 1000.7 |
| 20260505062701 | 73 | 135 | 2.6 | 5.2 | 0.00 | 0.00 | 0.00 | 66 | 1000.4 |
| 20260505062159 | 73 | 211 | 4.3 | 6.1 | 0.00 | 0.00 | 0.00 | 65 | 1000.8 |
| 20260505061656 | 73 | 186 | 2.6 | 7.0 | 0.00 | 0.00 | 0.00 | 66 | 1000.7 |
| 20260505061154 | 73 | 194 | 4.3 | 7.8 | 0.00 | 0.00 | 0.00 | 66 | 1000.9 |
| 20260505060651 | 73 | 193 | 6.1 | 8.7 | 0.00 | 0.00 | 0.00 | 66 | 1000.6 |
| 20260505060148 | 73 | 228 | 9.6 | 12.2 | 0.00 | 0.00 | 0.00 | 66 | 1000.6 |
| 20260505055643 | 73 | 177 | 3.5 | 5.2 | 0.00 | 0.00 | 0.00 | 65 | 1000.9 |
| 20260505055140 | 73 | 200 | 5.2 | 7.0 | 0.00 | 0.00 | 0.00 | 65 | 1000.9 |
| 20260505054637 | 73 | 173 | 5.2 | 8.7 | 0.00 | 0.00 | 0.00 | 65 | 1001.0 |
| 20260505054135 | 73 | 279 | 2.6 | 4.3 | 0.00 | 0.00 | 0.00 | 65 | 1001.0 |
| 20260505053633 | 73 | 177 | 5.2 | 7.8 | 0.00 | 0.00 | 0.00 | 65 | 1001.0 |
| 20260505053129 | 73 | 184 | 4.3 | 8.7 | 0.00 | 0.00 | 0.00 | 65 | 1001.0 |
| 20260505052626 | 73 | 190 | 7.8 | 9.6 | 0.00 | 0.00 | 0.00 | 65 | 1001.1 |
| 20260505052123 | 73 | 171 | 6.1 | 7.8 | 0.00 | 0.00 | 0.00 | 65 | 1001.3 |
| 20260505051620 | 74 | 183 | 5.2 | 8.7 | 0.00 | 0.00 | 0.00 | 65 | 1001.2 |
| 20260505051118 | 74 | 193 | 6.1 | 8.7 | 0.00 | 0.00 | 0.00 | 64 | 1001.2 |
| 20260505050616 | 74 | 200 | 4.3 | 7.8 | 0.00 | 0.00 | 0.00 | 64 | 1001.2 |
| 20260505050114 | 74 | 206 | 5.2 | 6.1 | 0.00 | 0.00 | 0.00 | 64 | 1001.4 |
| 20260505041544 | 74 | 228 | 4.3 | 7.8 | 0.00 | 0.00 | 0.00 | 64 | 1001.9 |
| 20260505041041 | 74 | 167 | 2.6 | 5.2 | 0.00 | 0.00 | 0.00 | 64 | 1001.7 |
| 20260505040538 | 74 | 195 | 1.7 | 4.3 | 0.00 | 0.00 | 0.00 | 64 | 1001.7 |
| 20260505040035 | 74 | 110 | 0.9 | 1.7 | 0.00 | 0.00 | 0.00 | 64 | 1001.8 |
| 20260505035531 | 74 | 196 | 4.3 | 5.2 | 0.00 | 0.00 | 0.00 | 64 | 1001.9 |
| 20260505035028 | 74 | 233 | 4.3 | 7.0 | 0.00 | 0.00 | 0.00 | 64 | 1001.7 |
| 20260505034524 | 74 | 150 | 2.6 | 4.3 | 0.00 | 0.00 | 0.00 | 63 | 1001.9 |
| 20260505034021 | 74 | 206 | 2.6 | 4.3 | 0.00 | 0.00 | 0.00 | 63 | 1001.9 |
| 20260505033519 | 75 | 165 | 2.6 | 4.3 | 0.00 | 0.00 | 0.00 | 63 | 1001.9 |
| 20260505033017 | 75 | 193 | 5.2 | 7.0 | 0.00 | 0.00 | 0.00 | 63 | 1002.1 |
| 20260505032514 | 75 | 185 | 6.1 | 7.0 | 0.00 | 0.00 | 0.00 | 62 | 1001.7 |
| 20260505032010 | 75 | 176 | 2.6 | 5.2 | 0.00 | 0.00 | 0.00 | 62 | 1001.7 |
| 20260505031508 | 75 | 160 | 3.5 | 6.1 | 0.00 | 0.00 | 0.00 | 62 | 1001.6 |
| 20260505031004 | 75 | 180 | 6.1 | 7.8 | 0.00 | 0.00 | 0.00 | 62 | 1001.4 |
| 20260505030501 | 75 | 123 | 2.6 | 6.1 | 0.00 | 0.00 | 0.00 | 61 | 1001.5 |
| 20260505025955 | 75 | 165 | 3.5 | 6.1 | 0.00 | 0.00 | 0.00 | 61 | 1001.5 |